Time,TemperatureF,DewpointF,PressureIn,WindDirection,WindDirectionDegrees,WindSpeedMPH,WindSpeedGustMPH,Humidity,HourlyPrecipIn,Conditions,Clouds,dailyrainin,SoftwareType,DateUTC
2013-02-20 00:01:00,36.4,35.0,30.01,East,84,0.0,0.0,94,0.00,,,0.03,weatherlink.com 1.10,2013-02-20 08:01:00,
2013-02-20 00:16:00,36.2,35.0,30.02,East,83,0.0,0.0,94,0.00,,,0.03,weatherlink.com 1.10,2013-02-20 08:16:00,
2013-02-20 00:32:00,35.8,34.0,30.02,East,84,0.0,0.0,94,0.00,,,0.03,weatherlink.com 1.10,2013-02-20 08:32:00,
2013-02-20 00:46:00,35.4,34.0,30.02,East,83,0.0,0.0,94,0.00,,,0.03,weatherlink.com 1.10,2013-02-20 08:46:00,
2013-02-20 01:01:00,35.4,34.0,30.03,East,83,0.0,0.0,94,0.00,,,0.03,weatherlink.com 1.10,2013-02-20 09:01:00,
2013-02-20 01:16:00,35.1,34.0,30.03,East,84,0.0,0.0,94,0.00,,,0.03,weatherlink.com 1.10,2013-02-20 09:16:00,
2013-02-20 01:31:00,35.1,34.0,30.03,East,84,0.0,0.0,94,0.00,,,0.03,weatherlink.com 1.10,2013-02-20 09:31:00,
2013-02-20 01:46:00,35.0,34.0,30.04,East,83,0.0,0.0,94,0.00,,,0.03,weatherlink.com 1.10,2013-02-20 09:46:00,
2013-02-20 02:01:00,35.1,34.0,30.04,NE,51,1.0,2.0,94,0.00,,,0.03,weatherlink.com 1.10,2013-02-20 10:01:00,
2013-02-20 02:16:00,35.0,34.0,30.04,ENE,64,0.0,2.0,94,0.00,,,0.03,weatherlink.com 1.10,2013-02-20 10:16:00,
2013-02-20 02:31:00,34.7,33.0,30.04,ENE,63,0.0,1.0,94,0.00,,,0.03,weatherlink.com 1.10,2013-02-20 10:31:00,
2013-02-20 02:46:00,34.7,33.0,30.04,ENE,60,0.0,1.0,94,0.00,,,0.03,weatherlink.com 1.10,2013-02-20 10:46:00,
2013-02-20 03:01:00,34.5,33.0,30.05,NE,47,0.0,0.0,94,0.00,,,0.03,weatherlink.com 1.10,2013-02-20 11:01:00,
2013-02-20 03:16:00,34.3,33.0,30.05,NE,44,0.0,2.0,94,0.00,,,0.03,weatherlink.com 1.10,2013-02-20 11:16:00,
2013-02-20 03:31:00,34.2,33.0,30.05,NE,44,0.0,1.0,94,0.00,,,0.00,weatherlink.com 1.10,2013-02-20 11:31:00,
2013-02-20 03:46:00,33.9,32.0,30.05,NE,44,0.0,0.0,94,0.00,,,0.00,weatherlink.com 1.10,2013-02-20 11:46:00,
2013-02-20 04:01:00,33.8,32.0,30.05,NE,44,0.0,0.0,94,0.00,,,0.00,weatherlink.com 1.10,2013-02-20 12:01:00,
2013-02-20 04:16:00,33.8,32.0,30.05,NE,44,0.0,0.0,94,0.00,,,0.00,weatherlink.com 1.10,2013-02-20 12:16:00,
2013-02-20 04:31:00,34.1,33.0,30.05,NE,34,1.0,2.0,94,0.00,,,0.00,weatherlink.com 1.10,2013-02-20 12:31:00,
2013-02-20 04:46:00,34.2,33.0,30.05,NE,43,0.0,2.0,94,0.00,,,0.00,weatherlink.com 1.10,2013-02-20 12:46:00,
2013-02-20 05:01:00,33.9,32.0,30.05,NE,43,0.0,0.0,94,0.00,,,0.00,weatherlink.com 1.10,2013-02-20 13:01:00,
2013-02-20 05:16:00,33.9,32.0,30.06,NE,43,0.0,0.0,94,0.00,,,0.00,weatherlink.com 1.10,2013-02-20 13:16:00,
2013-02-20 05:31:00,-999.0,-99.9,30.06,North,-999,-999.0,-999.0,-999,0.00,,,0.00,weatherlink.com 1.10,2013-02-20 13:31:00,
2013-02-20 05:46:00,-999.0,-99.9,30.06,North,-999,-999.0,-999.0,-999,0.00,,,0.00,weatherlink.com 1.10,2013-02-20 13:46:00,
2013-02-20 06:01:00,-999.0,-99.9,30.06,North,-999,-999.0,-999.0,-999,0.00,,,0.00,weatherlink.com 1.10,2013-02-20 14:01:00,
2013-02-20 06:16:00,-999.0,-99.9,30.07,North,-999,-999.0,-999.0,-999,0.00,,,0.00,weatherlink.com 1.10,2013-02-20 14:16:00,
2013-02-20 06:31:00,-999.0,-99.9,30.07,North,-999,-999.0,-999.0,-999,0.00,,,0.00,weatherlink.com 1.10,2013-02-20 14:31:00,
2013-02-20 06:47:00,-999.0,-99.9,30.07,North,-999,-999.0,-999.0,-999,0.00,,,0.00,weatherlink.com 1.10,2013-02-20 14:47:00,
2013-02-20 07:02:00,-999.0,-99.9,30.07,North,-999,-999.0,-999.0,-999,0.00,,,0.00,weatherlink.com 1.10,2013-02-20 15:02:00,
2013-02-20 07:17:00,-999.0,-99.9,30.07,North,-999,-999.0,-999.0,-999,0.00,,,0.00,weatherlink.com 1.10,2013-02-20 15:17:00,
2013-02-20 07:32:00,-999.0,-99.9,30.07,North,-999,-999.0,-999.0,-999,0.00,,,0.00,weatherlink.com 1.10,2013-02-20 15:32:00,
2013-02-20 07:47:00,-999.0,-99.9,30.07,North,-999,-999.0,-999.0,-999,0.00,,,0.00,weatherlink.com 1.10,2013-02-20 15:47:00,
2013-02-20 08:02:00,35.8,34.0,30.07,NE,51,0.0,0.0,94,0.00,,,0.00,weatherlink.com 1.10,2013-02-20 16:02:00,
2013-02-20 08:17:00,36.4,35.0,30.07,NW,306,0.0,0.0,94,0.00,,,0.00,weatherlink.com 1.10,2013-02-20 16:17:00,
2013-02-20 08:32:00,37.5,36.0,30.07,NW,306,0.0,0.0,94,0.00,,,0.00,weatherlink.com 1.10,2013-02-20 16:32:00,
2013-02-20 08:47:00,38.1,37.0,30.07,NW,307,0.0,0.0,94,0.00,,,0.00,weatherlink.com 1.10,2013-02-20 16:47:00,
2013-02-20 09:02:00,38.8,37.0,30.07,NW,322,0.0,0.0,94,0.00,,,0.00,weatherlink.com 1.10,2013-02-20 17:02:00,
2013-02-20 09:17:00,39.7,38.0,30.07,SE,136,1.0,2.0,94,0.00,,,0.00,weatherlink.com 1.10,2013-02-20 17:17:00,
2013-02-20 09:32:00,40.4,39.0,30.09,WNW,283,0.0,2.0,93,0.00,,,0.00,weatherlink.com 1.10,2013-02-20 17:32:00,
2013-02-20 09:47:00,41.2,39.0,30.09,SSW,203,3.0,4.0,93,0.00,,,0.00,weatherlink.com 1.10,2013-02-20 17:47:00,
2013-02-20 10:02:00,41.9,40.0,30.09,SW,218,4.0,6.0,93,0.00,,,0.00,weatherlink.com 1.10,2013-02-20 18:02:00,
2013-02-20 10:17:00,44.0,42.0,30.08,WSW,253,1.0,4.0,94,0.00,,,0.00,weatherlink.com 1.10,2013-02-20 18:17:00,
2013-02-20 10:32:00,44.5,42.0,30.08,ENE,66,4.0,4.0,92,0.00,,,0.00,weatherlink.com 1.10,2013-02-20 18:32:00,
2013-02-20 10:47:00,44.4,42.0,30.08,East,82,0.0,5.0,90,0.00,,,0.00,weatherlink.com 1.10,2013-02-20 18:47:00,
2013-02-20 11:02:00,44.8,42.0,30.08,East,80,4.0,5.0,90,0.00,,,0.00,weatherlink.com 1.10,2013-02-20 19:02:00,
2013-02-20 11:17:00,45.2,42.0,30.07,ENE,60,4.0,9.0,88,0.00,,,0.00,weatherlink.com 1.10,2013-02-20 19:17:00,
2013-02-20 11:33:00,46.8,43.0,30.07,East,89,2.0,10.0,87,0.00,,,0.00,weatherlink.com 1.10,2013-02-20 19:33:00,
2013-02-20 11:48:00,46.5,42.0,30.06,East,85,4.0,9.0,85,0.00,,,0.00,weatherlink.com 1.10,2013-02-20 19:48:00,
2013-02-20 12:03:00,46.4,43.0,30.06,South,180,6.0,10.0,87,0.00,,,0.00,weatherlink.com 1.10,2013-02-20 20:03:00,
2013-02-20 12:18:00,46.5,43.0,30.06,ESE,114,2.0,6.0,88,0.00,,,0.00,weatherlink.com 1.10,2013-02-20 20:18:00,
2013-02-20 12:33:00,46.6,43.0,30.07,South,181,2.0,6.0,88,0.00,,,0.00,weatherlink.com 1.10,2013-02-20 20:33:00,
2013-02-20 12:48:00,46.7,43.0,30.06,WSW,248,2.0,5.0,88,0.00,,,0.00,weatherlink.com 1.10,2013-02-20 20:48:00,
2013-02-20 13:03:00,46.0,43.0,30.06,WSW,246,3.0,6.0,90,0.00,,,0.00,weatherlink.com 1.10,2013-02-20 21:03:00,
2013-02-20 13:18:00,46.0,44.0,30.05,WSW,256,2.0,4.0,91,0.00,,,0.00,weatherlink.com 1.10,2013-02-20 21:18:00,
2013-02-20 13:33:00,46.2,43.0,30.04,WSW,238,4.0,6.0,89,0.00,,,0.00,weatherlink.com 1.10,2013-02-20 21:33:00,
2013-02-20 13:48:00,46.3,43.0,30.03,West,264,9.0,12.0,89,0.00,,,0.00,weatherlink.com 1.10,2013-02-20 21:48:00,
2013-02-20 14:03:00,45.2,43.0,30.04,SW,217,4.0,12.0,90,0.00,,,0.00,weatherlink.com 1.10,2013-02-20 22:03:00,
2013-02-20 14:18:00,45.7,43.0,30.03,SW,229,6.0,8.0,91,0.00,,,0.00,weatherlink.com 1.10,2013-02-20 22:18:00,
2013-02-20 14:33:00,46.0,43.0,30.02,West,264,7.0,11.0,90,0.01,,,0.01,weatherlink.com 1.10,2013-02-20 22:33:00,
2013-02-20 14:48:00,45.4,43.0,30.02,West,259,1.0,7.0,92,0.01,,,0.01,weatherlink.com 1.10,2013-02-20 22:48:00,
2013-02-20 15:03:00,45.5,43.0,30.02,NNE,12,3.0,11.0,92,0.01,,,0.01,weatherlink.com 1.10,2013-02-20 23:03:00,
2013-02-20 15:18:00,45.4,43.0,30.01,West,266,6.0,8.0,92,0.01,,,0.01,weatherlink.com 1.10,2013-02-20 23:18:00,
2013-02-20 15:33:00,45.3,42.0,30.01,WSW,257,3.0,7.0,87,0.00,,,0.01,weatherlink.com 1.10,2013-02-20 23:33:00,
2013-02-20 15:48:00,45.4,41.0,30.01,WSW,255,10.0,12.0,85,0.00,,,0.01,weatherlink.com 1.10,2013-02-20 23:48:00,
2013-02-20 16:03:00,45.1,40.0,30.01,SW,231,4.0,15.0,82,0.00,,,0.01,weatherlink.com 1.10,2013-02-21 00:03:00,
2013-02-20 16:18:00,44.9,42.0,30.02,WSW,245,7.0,17.0,89,0.00,,,0.01,weatherlink.com 1.10,2013-02-21 00:18:00,
2013-02-20 16:33:00,43.9,41.0,30.02,WSW,253,3.0,12.0,89,0.01,,,0.02,weatherlink.com 1.10,2013-02-21 00:33:00,
2013-02-20 16:48:00,43.4,41.0,30.02,SSW,207,3.0,7.0,90,0.01,,,0.02,weatherlink.com 1.10,2013-02-21 00:48:00,
2013-02-20 17:03:00,43.2,41.0,30.03,WSW,249,7.0,10.0,91,0.03,,,0.04,weatherlink.com 1.10,2013-02-21 01:03:00,
2013-02-20 17:18:00,42.6,41.0,30.04,SW,217,2.0,8.0,93,0.09,,,0.10,weatherlink.com 1.10,2013-02-21 01:18:00,
2013-02-20 17:33:00,42.3,41.0,30.03,East,84,2.0,8.0,93,0.09,,,0.11,weatherlink.com 1.10,2013-02-21 01:33:00,
2013-02-20 17:48:00,42.0,40.0,30.02,ENE,77,4.0,6.0,93,0.09,,,0.11,weatherlink.com 1.10,2013-02-21 01:48:00,
2013-02-20 18:03:00,41.6,40.0,30.02,ESE,117,2.0,7.0,93,0.07,,,0.11,weatherlink.com 1.10,2013-02-21 02:03:00,
2013-02-20 18:18:00,41.4,40.0,30.03,East,92,1.0,1.0,93,0.03,,,0.13,weatherlink.com 1.10,2013-02-21 02:18:00,
2013-02-20 18:33:00,41.4,40.0,30.04,WNW,290,3.0,5.0,93,0.02,,,0.13,weatherlink.com 1.10,2013-02-21 02:33:00,
2013-02-20 18:48:00,41.3,40.0,30.05,NE,44,0.0,4.0,93,0.02,,,0.13,weatherlink.com 1.10,2013-02-21 02:48:00,
2013-02-20 19:03:00,41.3,40.0,30.05,ESE,117,0.0,3.0,93,0.02,,,0.13,weatherlink.com 1.10,2013-02-21 03:03:00,
2013-02-20 19:18:00,41.2,39.0,30.05,ESE,117,0.0,0.0,93,0.00,,,0.13,weatherlink.com 1.10,2013-02-21 03:18:00,
2013-02-20 19:33:00,41.3,40.0,30.06,ENE,63,0.0,0.0,93,0.02,,,0.15,weatherlink.com 1.10,2013-02-21 03:33:00,
2013-02-20 19:48:00,41.5,40.0,30.06,NNW,327,0.0,5.0,93,0.07,,,0.20,weatherlink.com 1.10,2013-02-21 03:48:00,
2013-02-20 20:03:00,41.3,40.0,30.06,NNE,19,0.0,1.0,93,0.07,,,0.20,weatherlink.com 1.10,2013-02-21 04:03:00,
2013-02-20 20:18:00,41.6,40.0,30.07,WNW,294,1.0,4.0,93,0.08,,,0.21,weatherlink.com 1.10,2013-02-21 04:18:00,
2013-02-20 20:33:00,41.7,40.0,30.08,East,99,1.0,7.0,93,0.08,,,0.24,weatherlink.com 1.10,2013-02-21 04:33:00,
2013-02-20 20:48:00,41.5,40.0,30.07,East,80,0.0,0.0,93,0.05,,,0.25,weatherlink.com 1.10,2013-02-21 04:48:00,
2013-02-20 21:03:00,41.4,40.0,30.07,West,269,0.0,1.0,93,0.06,,,0.26,weatherlink.com 1.10,2013-02-21 05:03:00,
2013-02-20 21:18:00,41.2,39.0,30.08,NE,45,0.0,0.0,93,0.06,,,0.27,weatherlink.com 1.10,2013-02-21 05:18:00,
2013-02-20 21:33:00,41.3,40.0,30.08,NE,36,0.0,1.0,93,0.05,,,0.29,weatherlink.com 1.10,2013-02-21 05:33:00,
2013-02-20 21:48:00,41.1,39.0,30.09,NE,36,0.0,0.0,93,0.04,,,0.29,weatherlink.com 1.10,2013-02-21 05:48:00,
2013-02-20 22:03:00,41.1,39.0,30.09,SE,124,0.0,1.0,93,0.03,,,0.29,weatherlink.com 1.10,2013-02-21 06:03:00,
2013-02-20 22:18:00,41.2,39.0,30.09,East,89,0.0,1.0,93,0.01,,,0.29,weatherlink.com 1.10,2013-02-21 06:18:00,
2013-02-20 22:33:00,41.9,40.0,30.10,ESE,102,0.0,2.0,93,0.00,,,0.29,weatherlink.com 1.10,2013-02-21 06:33:00,
2013-02-20 22:48:00,41.9,40.0,30.10,North,351,0.0,2.0,93,0.00,,,0.29,weatherlink.com 1.10,2013-02-21 06:48:00,
2013-02-20 23:03:00,42.1,40.0,30.10,WNW,287,0.0,2.0,93,0.00,,,0.29,weatherlink.com 1.10,2013-02-21 07:03:00,
2013-02-20 23:18:00,42.3,41.0,30.10,ENE,67,3.0,5.0,93,0.01,,,0.30,weatherlink.com 1.10,2013-02-21 07:18:00,
2013-02-20 23:33:00,42.3,41.0,30.10,East,80,0.0,5.0,93,0.01,,,0.30,weatherlink.com 1.10,2013-02-21 07:33:00,
2013-02-20 23:48:00,42.7,41.0,30.10,WNW,285,1.0,6.0,94,0.01,,,0.30,weatherlink.com 1.10,2013-02-21 07:48:00,